User: anonymous   Login
Location: Unspecified
(0.0000°N, 0.0000°E)
Time: 23:44:48
(UTC+02:00)
Language:

OPAL - Orbit

View from above orbital plane
View from above orbital plane
View from above satellite
View from above satellite

Ground track
Ground track

The orbit data is extracted from the following two-line orbital elements,

1 26063U 00004C   16241.92222022 +.00000005 +00000-0 +21567-4 0  9996
2 26063 100.1921 185.5776 0037149 053.0525 307.4048 14.36628905869212
Epoch (UTC): 28 August 2016 22:07:59
Eccentricity: 0.0037149
inclination: 100.1921°
perigee height: 743 km
apogee height: 796 km
right ascension of ascending node: 185.5776°
argument of perigee: 53.0525°
revolutions per day: 14.36628905
mean anomaly at epoch: 307.4048°
orbit number at epoch: 86921

The dashed part of the orbit path shows where the satellite is in the earth's shadow,  

DLR